Погода в Каменке

Россия / Новгородская область     57°18′40″N   31°03′37″E
темп.,
°C
ветер,
м/с
пор.,
м/с
влажн.,
%
обл.,
%
осадки,
мм/ч
давл.,
гПа
погр.,
м
23 сентября, чт
чт2300:00+4св2498100 0.3 1015661
03:00+4св1295100 0.4 1015112
06:00+4св1197100 0.3 101458
09:00+5в1397100 0.3 1014187
12:00+7ю2486100 0.1 1013736
15:00+6ю2590100 0.1 1011465
18:00+6ююв379180 0.0 1009531
21:00+5ю499398 0.0 1006656
24 сентября, пт
пт2400:00+5ююв51291100 0.0 1003710
03:00+4ююв6139099 0.0 999801
06:00+5юв61485100 0.0 995795
09:00+4юв61491100 0.7 994791
12:00+5юв51296100 2.4 994927
15:00+5вюв41098100 3.0 995784
18:00+5вюв3997100 0.1 996667
21:00+5в2697100 0.3 998414
25 сентября, сб
сб2500:00+6в2498100 0.1 999193
03:00+6ю1298100 0.2 100090
06:00+6юз1298100 0.1 1001110
09:00+6ююз2597100 0.1 1002256
12:00+7ююз3798100 0.7 1003321
15:00+9ююз2695100 0.9 1003326
18:00+9ююз2596100 0.8 1004161
21:00+8з379395 1.1 1007212
26 сентября, вс
вс2600:00+6зсз399588 0.0 1008217
03:00+6зсз399692 0.0 1010251
06:00+5зсз3109795 0.0 1012285
09:00+7сз41193100 0.1 1013567
12:00+8сз41092100 0.0 1016726
15:00+10ссз4987100 0.1 1019769
18:00+9ссз389082 0.3 1020507
21:00+7с399676 0.3 1022328
27 сентября, пн
пн2700:00+6с279987 0.0 1024197
03:00+5с259933 0.0 1025129
06:00+5ссв2599100 0.0 1026129
09:00+7ссв259331 0.0 1027232
12:00+11св247697 0.0 1027699
15:00+11св3478100 0.2 1028685
18:00+9св258897 0.0 1028204
21:00+8св2690100 0.0 1029150